Dewpoint
34 38 38 42 45 45 46 47 45 46 47 47 46 46 47 43 41 39 40 42 40 39 38 37 36 37 36 36 36 35 36 37 38 38 36 45 47 50 36 46 46 45 46
33 35 38 42 44 45 46 44 40 42 44 46 47 47 47 42 40 39 38 39 39 39 37 36 35 36 35 34 35 35 33 36 38 37 45 35 37 43 35 46 45 45 45
33 34 37 42 44 45 43 39 38 39 39 41 42 41 40 40 38 37 36 37 38 39 38 36 34 34 35 33 34 34 34 31 35 43 37 26 31 32 40 33 45 39 43
33 36 38 42 43 42 40 39 38 38 37 37 36 34 34 32 36 37 36 35 35 37 37 37 35 34 35 33 34 32 34 33 30 34 38 37 35 34 26 40 32 42 32
34 37 39 42 42 39 38 38 37 36 36 35 34 33 33 34 35 35 33 32 33 34 35 36 35 34 34 34 33 33 32 33 32 32 34 32 32 41 40 26 27 29 31
36 38 40 41 38 37 36 36 35 35 35 34 34 33 32 32 32 32 31 32 32 33 33 33 34 35 34 33 34 34 33 32 32 32 32 30 28 26 28 26 27 30 28
37 38 38 38 37 36 35 35 34 34 34 34 33 33 33 33 32 32 32 32 32 32 32 33 33 33 34 34 34 33 33 32 31 31 29 31 30 31 29 29 27 28 28
37 37 37 37 36 35 35 35 34 34 34 33 33 33 33 33 33 32 32 31 30 30 31 30 31 32 33 33 33 33 33 33 32 31 31 30 30 31 31 30 29 27 23
35 35 35 35 35 33 33 33 33 33 33 32 33 31 30 28 28 28 28 28 28 26 26 29 30 31 33 33 33 33 32 32 31 31 31 30 29 31 32 32 31 29 27
33 34 34 34 34 34 34 34 34 31 28 26 25 25 25 26 26 26 23 23 24 25 26 26 27 28 30 32 32 33 33 32 32 31 31 30 29 30 30 31 30 31 32
32 30 30 31 32 31 28 24 22 21 22 23 23 23 25 25 25 24 23 23 25 24 24 25 27 27 27 28 30 31 32 31 31 31 30 30 29 28 28 29 30 31 32
27 24 20 19 19 18 18 18 20 20 21 22 23 23 24 24 23 23 23 24 23 24 24 25 26 25 26 27 29 29 29 29 29 29 29 28 26 27 27 27 27 29 30
19 14 14 14 13 14 15 16 18 19 20 21 21 21 22 22 21 21 22 23 23 23 24 24 25 23 23 25 27 28 28 27 29 29 29 28 27 26 26 26 26 28 29
15 14 13 11 12 13 14 16 16 19 19 20 21 21 21 21 22 23 24 24 24 23 23 22 22 23 22 23 25 25 26 25 26 29 29 27 26 26 26 27 28 28 30
14 13 11 11 12 12 14 16 17 18 19 19 20 20 21 22 23 23 23 23 23 21 21 21 22 23 24 22 22 24 25 26 27 28 28 28 29 29 29 27 28 30 30
12 10 11 11 12 13 14 15 16 17 19 18 18 19 20 21 21 22 22 22 21 20 20 21 22 23 22 20 22 23 24 25 25 27 28 29 29 30 30 30 30 32 32
10 10 11 12 13 14 15 15 16 18 17 16 17 18 19 20 20 20 20 19 19 18 18 18 20 20 20 20 21 22 25 24 25 26 28 29 28 29 29 29 29 30 30
10 10 11 11 13 14 15 16 17 17 17 17 17 18 19 19 19 19 19 18 17 16 16 17 17 17 17 19 20 21 23 22 24 25 27 29 29 28 28 28 29 29 30
10 10 12 13 14 14 15 15 15 16 16 16 17 18 19 19 19 18 17 16 16 16 16 16 16 16 16 17 19 20 20 20 22 23 27 28 28 28 28 29 30 30 31
11 11 12 13 12 11 15 15 15 15 15 16 17 18 19 19 18 17 16 16 16 16 16 17 17 18 18 19 20 20 20 20 21 23 25 28 28 28 28 30 30 30 30
10 13 13 11 11 14 15 15 15 15 16 18 18 18 18 17 16 16 18 18 18 18 19 19 19 19 19 19 20 21 21 21 21 22 23 24 26 26 26 26 28 29 30
9 10 10 10 12 14 15 14 14 16 16 17 16 16 16 16 18 19 20 20 20 20 20 19 19 19 20 20 21 22 23 23 23 25 26 30 27 26 26 26 26 27 27
9 10 11 11 12 13 14 14 14 15 15 15 16 17 18 19 19 20 21 21 20 20 20 20 20 20 21 21 23 24 25 25 24 23 23 23 24 26 26 25 25 26 26
9 10 11 11 12 13 14 14 15 15 15 16 17 19 19 21 21 21 22 22 22 22 23 23 24 24 25 27 27 26 26 28 28 27 26 27 27 25 25 25 26 26 27
10 11 12 13 13 14 14 15 16 17 17 18 19 20 21 22 22 24 24 23 22 23 27 27 27 27 27 29 31 32 32 30 32 32 31 28 28 27 26 27 27 27 26
13 13 13 14 15 15 16 17 18 19 19 19 20 21 22 24 24 22 22 24 26 22 21 21 21 21 21 22 22 22 23 24 26 31 30 29 29 28 27 26 26 26 27
Wind_Speed
9 10 10 10 9 8 8 7 8 5 5 3 5 4 5 5 7 9 10 10 10 10 10 9 10 11 11 11 13 10 13 11 18 9 12 6 6 1 17 6 7 13 11
12 12 12 10 9 10 8 8 8 7 6 5 4 3 4 5 6 5 8 9 8 8 8 9 9 10 9 12 13 14 9 5 12 8 5 9 6 5 17 4 8 11 10
19 16 14 11 10 10 9 9 8 8 7 6 7 6 5 4 3 5 5 6 6 6 6 7 7 8 8 9 9 10 11 10 6 8 6 6 5 18 4 14 3 15 10
15 15 15 13 12 10 9 10 9 9 8 7 9 8 6 4 1 1 2 4 5 5 5 5 5 6 5 7 7 7 6 6 9 6 4 3 8 6 11 5 13 6 18
21 20 17 15 11 11 11 10 9 9 8 9 9 9 8 4 1 2 4 5 6 5 6 6 6 6 5 5 6 6 6 4 4 5 6 6 9 6 7 18 18 16 13
19 16 14 13 12 9 10 9 10 8 7 8 8 8 7 4 4 5 7 8 7 6 9 10 10 10 10 9 9 7 6 5 5 5 5 6 6 11 11 16 16 21 15
20 19 18 15 13 11 10 9 8 8 6 7 7 6 6 4 4 4 5 8 9 9 11 11 12 12 11 12 10 10 10 8 8 7 8 8 10 10 13 16 20 17 17
18 19 16 14 13 11 9 8 8 8 6 6 6 5 4 4 3 4 5 6 7 9 11 13 14 15 15 15 14 12 12 11 10 11 10 10 11 10 12 12 16 21 19
18 17 13 12 12 11 9 9 9 8 6 6 5 6 5 5 4 4 4 6 7 9 12 13 14 15 15 15 16 14 15 13 12 13 12 12 12 11 12 13 13 16 22
17 15 13 12 9 9 9 10 9 9 8 7 6 4 4 4 4 4 7 8 9 9 12 13 13 15 16 17 16 15 15 16 15 14 15 15 13 14 14 14 15 16 19
16 14 11 10 11 12 12 12 11 9 7 5 3 4 4 4 4 5 7 8 8 10 12 13 14 15 16 17 16 17 17 18 19 17 18 19 16 16 15 14 15 17 17
15 15 15 15 15 13 11 9 7 6 4 3 3 4 5 6 8 9 11 11 13 13 13 13 14 15 16 16 17 19 19 20 21 21 19 19 15 17 17 16 18 17 18
18 16 15 13 11 9 7 6 4 3 2 3 5 7 9 10 11 13 14 15 15 15 15 15 16 16 16 17 18 19 20 21 21 22 21 20 18 18 17 18 17 17 17
18 15 12 10 7 5 4 2 3 3 4 5 7 10 12 13 14 14 14 14 15 16 17 17 19 19 18 18 19 20 21 21 21 20 20 20 19 19 19 18 20 19 18
15 13 11 8 5 3 2 2 3 5 5 8 10 13 13 13 14 15 16 16 16 17 19 21 21 21 19 18 20 20 21 23 24 23 22 20 21 22 22 18 19 18 17
15 12 8 5 2 0 2 3 6 8 7 10 13 15 16 15 16 16 16 17 19 19 21 21 22 25 21 25 29 29 25 25 24 25 25 22 23 21 25 26 28 25 22
14 9 5 2 2 4 5 7 9 8 12 14 15 16 16 16 16 16 18 20 22 22 24 24 23 25 25 28 31 32 25 25 25 25 25 24 20 20 19 22 24 25 27
10 7 3 0 3 3 6 7 9 12 13 15 15 16 16 17 18 19 20 22 21 23 24 25 24 24 25 29 31 32 26 26 26 25 26 26 23 21 20 18 20 21 20
7 5 2 2 4 6 8 9 11 12 13 15 16 16 16 18 19 20 21 21 22 23 23 23 23 24 26 29 31 30 26 24 25 24 24 23 22 23 27 20 20 21 22
5 2 2 3 6 8 7 9 12 14 16 16 16 16 16 17 19 21 21 21 20 23 22 25 22 25 27 28 31 29 23 23 22 23 21 24 25 26 28 22 20 21 23
4 2 2 5 8 9 7 10 13 15 16 15 16 15 15 17 18 20 19 21 22 23 23 25 24 24 24 25 29 29 24 21 22 20 19 18 24 27 27 25 21 21 20
4 3 4 6 8 8 8 12 15 15 15 15 16 17 16 16 18 20 21 20 22 24 24 25 24 20 21 25 27 28 30 29 24 21 18 17 24 28 28 25 24 26 25
2 2 3 7 10 10 9 13 15 15 16 15 17 18 18 17 17 19 21 21 20 21 23 23 24 23 20 20 27 29 30 30 26 21 23 29 28 29 28 28 27 25 18
3 4 6 10 13 12 13 14 16 15 15 17 17 17 18 20 18 16 17 19 20 21 22 24 24 24 22 20 19 19 21 25 24 24 23 25 27 26 25 23 20 17 15
6 6 9 12 14 14 15 15 16 16 17 17 17 18 17 18 19 16 17 18 19 22 25 24 25 26 25 21 25 26 23 23 19 21 17 17 17 17 17 17 17 16 15
7 11 12 12 14 14 15 16 14 15 16 17 16 16 18 16 17 20 20 20 21 25 29 28 26 24 29 32 33 33 33 33 30 22 18 14 15 15 15 16 16 15 17
Wind_Direction
176 160 151 143 136 128 124 115 108 83 127 125 128 112 98 82 68 58 51 48 42 37 36 34 28 26 31 21 15 358 4 11 0 347 352 337 1 307 356 9 357 16 9
166 159 154 152 156 143 130 118 106 98 96 111 122 125 131 93 81 66 52 44 41 36 37 32 28 26 22 22 20 18 358 356 14 352 335 343 336 347 331 321 346 352 349
172 168 163 160 150 146 140 128 116 104 97 118 117 102 96 91 60 38 34 24 27 35 37 32 28 23 24 18 14 15 17 353 348 17 30 343 323 330 320 320 328 346 346
172 166 164 162 160 149 140 131 121 109 96 98 99 100 99 100 72 35 3 1 12 15 21 19 14 13 8 8 4 7 10 1 352 344 350 312 289 311 312 296 313 316 329
173 171 172 165 160 154 148 138 125 110 100 95 97 101 97 97 100 32 8 3 357 355 355 350 341 345 344 337 336 342 347 347 325 334 330 330 311 278 285 300 312 308 314
168 164 162 156 152 153 148 141 128 115 111 101 95 97 99 90 48 23 12 359 349 347 355 346 340 330 326 325 319 308 295 294 282 287 286 286 298 303 302 301 302 301 319
162 162 163 164 160 157 153 146 138 123 108 96 89 84 84 75 57 28 360 345 342 335 335 333 330 320 308 299 292 284 280 273 266 265 274 265 265 271 281 291 298 295 305
164 167 165 159 158 160 158 146 135 120 109 101 98 88 79 64 44 11 351 344 329 321 325 332 328 319 314 305 293 278 274 271 266 270 264 275 277 277 274 274 294 300 296
165 159 152 154 156 157 147 139 126 115 101 94 88 72 64 52 31 4 339 328 331 339 337 332 328 323 317 312 305 291 279 276 273 271 271 271 273 271 271 272 271 274 288
155 151 146 144 136 128 124 116 111 105 97 91 79 67 37 14 353 343 343 340 334 333 329 325 323 321 316 310 304 295 282 272 269 271 270 269 267 267 265 262 267 263 266
148 139 127 118 119 113 111 107 102 100 88 69 40 5 354 348 332 321 317 314 307 309 315 315 310 307 307 306 303 295 288 280 278 274 274 268 266 269 270 266 268 268 265
136 128 124 120 116 113 109 104 95 84 58 27 357 340 334 328 320 311 304 306 307 303 294 293 294 295 294 293 292 292 290 287 281 278 272 267 269 264 266 266 267 265 267
133 129 124 119 115 109 103 92 72 51 9 353 334 321 312 307 301 297 297 293 289 289 290 286 281 282 288 291 288 286 285 283 279 277 271 264 265 267 267 267 267 266 266
143 134 125 120 111 102 89 67 23 1 334 305 294 297 301 300 294 288 286 290 292 290 287 286 286 284 286 285 282 281 279 280 278 272 263 261 258 259 263 262 262 265 264
141 137 131 124 114 87 40 3 313 295 284 287 298 301 297 295 297 301 300 294 291 293 294 293 289 283 278 281 284 278 277 276 277 273 268 259 251 250 254 257 261 260 259
146 140 131 121 103 35 293 290 286 298 304 314 317 313 311 309 304 297 294 294 293 293 290 287 285 284 281 283 285 287 284 283 279 276 273 265 257 257 261 263 261 259 258
145 138 128 139 236 272 278 291 305 316 327 325 316 311 305 300 297 296 295 295 293 290 288 286 283 280 279 283 287 292 287 289 281 279 275 271 262 257 259 267 268 264 261
139 134 141 246 293 286 295 309 329 323 316 311 308 304 303 300 297 292 290 290 287 288 289 289 287 282 283 288 290 292 285 285 280 278 274 268 263 262 261 265 265 263 260
135 134 153 250 295 315 331 329 315 311 312 309 303 296 290 288 290 290 292 293 294 293 293 290 292 292 290 294 294 292 292 285 280 279 271 263 262 263 268 268 263 266 264
121 108 13 352 333 325 330 316 309 311 306 300 290 287 286 287 291 293 296 296 294 294 296 294 292 292 293 294 295 295 290 286 286 283 275 263 265 266 267 264 259 260 264
76 53 3 313 301 310 315 304 302 298 292 288 291 290 291 295 294 295 298 298 297 294 293 293 295 292 288 290 292 294 291 286 286 284 281 264 260 267 269 269 265 258 265
34 360 307 298 303 311 310 305 302 298 295 296 299 300 300 297 298 297 298 296 295 296 297 297 295 291 289 287 290 291 291 289 287 284 278 271 272 274 273 272 269 268 269
276 262 277 309 314 317 311 307 305 306 305 304 303 303 302 300 298 298 299 302 301 299 298 296 294 292 289 286 287 291 293 292 289 284 277 276 270 267 270 271 270 269 267
340 342 337 324 316 317 313 305 306 304 306 306 305 306 306 308 309 305 300 300 299 297 294 291 289 290 290 285 282 281 281 279 281 277 274 268 271 267 265 267 262 256 253
340 335 326 318 311 312 310 308 308 313 311 307 307 308 307 309 309 302 296 294 293 294 302 306 307 311 310 305 296 294 298 292 282 278 268 256 252 256 256 255 257 261 252
331 325 317 311 310 311 309 309 308 307 305 308 309 310 310 307 305 300 299 295 306 314 310 314 313 314 312 316 316 314 311 309 313 302 278 271 260 248 247 248 251 244 246